When you browse on this site, cookies collect data to enhance your experience and personalize the content and advertising you see.
Visit our Privacy Policy to learn more. By continuing to use the site, you agree to this use of cookies and data.
  • In United Kingdom
  • List of Countries
  • For 7 days
  • Water Temperature
  • Weather Map
  • Weather Widgets
  • user-avatar
    Login

    Hourly Weather Molepolole

    Today, 21 January, Tuesday

    Time Temperature Precipitation Wind Pressure Humidity
    00:00 +23°C° 0 mm 5 mps 664 mmHg 62%
    01:00 +22°C° 0 mm 5 mps 664 mmHg 65%
    02:00 +22°C° 0 mm 4 mps 664 mmHg 68%
    03:00 +21°C° 0 mm 4 mps 664 mmHg 71%
    04:00 +20°C° 0 mm 4 mps 664 mmHg 74%
    05:00 +20°C° 0 mm 4 mps 664 mmHg 77%
    06:00 +20°C° 0 mm 4 mps 664 mmHg 75%
    07:00 +21°C° 0 mm 4 mps 665 mmHg 72%
    08:00 +21°C° 0 mm 4 mps 665 mmHg 70%
    09:00 +24°C° 0 mm 3 mps 666 mmHg 63%
    10:00 +26°C° 0 mm 3 mps 666 mmHg 56%
    11:00 +28°C° 0 mm 3 mps 666 mmHg 48%
    12:00 +30°C° 0 mm 2 mps 666 mmHg 43%
    13:00 +31°C° 0 mm 2 mps 665 mmHg 37%
    14:00 +33°C° 0 mm 1 mps 665 mmHg 32%
    15:00 +33°C° 0 mm 1 mps 665 mmHg 31%
    16:00 +33°C° 0 mm 1 mps 664 mmHg 29%
    17:00 +33°C° 0 mm 1 mps 663 mmHg 28%
    18:00 +32°C° 0 mm 1 mps 663 mmHg 30%
    19:00 +31°C° 0 mm 1 mps 663 mmHg 32%
    20:00 +30°C° 0 mm 1 mps 663 mmHg 35%
    21:00 +29°C° 0 mm 1 mps 663 mmHg 38%
    22:00 +28°C° 0 mm 2 mps 663 mmHg 41%
    23:00 +28°C° 0 mm 3 mps 663 mmHg 44%

    Tomorrow, 22 January, Wednesday

    Time Temperature Precipitation Wind Pressure Humidity
    00:00 +27°C° 0 mm 3 mps 663 mmHg 46%
    01:00 +26°C° 0 mm 3 mps 663 mmHg 49%
    02:00 +26°C° 0 mm 3 mps 662 mmHg 52%
    03:00 +25°C° 0 mm 3 mps 662 mmHg 54%
    04:00 +25°C° 0 mm 3 mps 662 mmHg 55%
    05:00 +24°C° 0 mm 3 mps 662 mmHg 57%
    06:00 +25°C° 0 mm 4 mps 663 mmHg 55%
    07:00 +25°C° 0 mm 4 mps 663 mmHg 53%
    08:00 +26°C° 0 mm 4 mps 664 mmHg 51%
    09:00 +28°C° 0 mm 4 mps 664 mmHg 45%
    10:00 +30°C° 0 mm 4 mps 664 mmHg 40%
    11:00 +33°C° 0 mm 4 mps 665 mmHg 35%
    12:00 +34°C° 0 mm 4 mps 664 mmHg 32%
    13:00 +35°C° 0 mm 3 mps 663 mmHg 28%
    14:00 +36°C° 0 mm 3 mps 663 mmHg 25%
    15:00 +36°C° 0 mm 2 mps 662 mmHg 25%
    16:00 +35°C° 0 mm 2 mps 662 mmHg 25%
    17:00 +35°C° 0 mm 2 mps 662 mmHg 25%
    18:00 +34°C° 0 mm 2 mps 661 mmHg 29%
    19:00 +31°C° 0 mm 2 mps 661 mmHg 33%
    20:00 +29°C° 0 mm 2 mps 661 mmHg 37%
    21:00 +29°C° 0 mm 3 mps 661 mmHg 38%
    22:00 +28°C° 0 mm 3 mps 662 mmHg 40%
    23:00 +28°C° 0 mm 3 mps 662 mmHg 41%

    Day after tomorrow, 23 January, Thursday

    Time Temperature Precipitation Wind Pressure Humidity
    00:00 +27°C° 0 mm 4 mps 661 mmHg 44%
    01:00 +27°C° 0 mm 4 mps 661 mmHg 46%
    02:00 +26°C° 0 mm 4 mps 661 mmHg 48%
    03:00 +26°C° 0 mm 4 mps 661 mmHg 51%
    04:00 +25°C° 0 mm 4 mps 661 mmHg 53%
    05:00 +24°C° 0 mm 3 mps 660 mmHg 55%
    06:00 +26°C° 0 mm 3 mps 661 mmHg 52%
    07:00 +27°C° 0 mm 3 mps 662 mmHg 48%
    08:00 +28°C° 0 mm 3 mps 663 mmHg 45%
    09:00 +30°C° 0 mm 3 mps 663 mmHg 40%
    10:00 +33°C° 0 mm 4 mps 663 mmHg 35%
    11:00 +35°C° 0 mm 4 mps 663 mmHg 30%
    12:00 +35°C° 0 mm 4 mps 663 mmHg 29%
    13:00 +35°C° 0 mm 4 mps 662 mmHg 27%
    14:00 +35°C° 0 mm 3 mps 662 mmHg 26%
    15:00 +35°C° 0 mm 4 mps 662 mmHg 28%
    16:00 +34°C° 0 mm 5 mps 662 mmHg 30%
    17:00 +34°C° 0 mm 6 mps 662 mmHg 32%
    18:00 +30°C° 0.5 mm 5 mps 662 mmHg 42%
    19:00 +28°C° 0.5 mm 4 mps 662 mmHg 53%
    20:00 +25°C° 0.5 mm 4 mps 662 mmHg 63%
    21:00 +23°C° 0.5 mm 4 mps 662 mmHg 67%
    22:00 +23°C° 0.5 mm 4 mps 663 mmHg 71%
    23:00 +22°C° 0.5 mm 4 mps 663 mmHg 75%

    24 January, Friday

    Time Temperature Precipitation Wind Pressure Humidity
    00:00 +22°C° 0.1 mm 4 mps 663 mmHg 77%
    01:00 +22°C° 0.1 mm 4 mps 663 mmHg 78%
    02:00 +21°C° 0.1 mm 4 mps 663 mmHg 79%
    03:00 +21°C° 0.6 mm 4 mps 663 mmHg 82%
    04:00 +21°C° 0.6 mm 4 mps 663 mmHg 84%
    05:00 +20°C° 0.6 mm 5 mps 663 mmHg 86%
    06:00 +20°C° 1.3 mm 5 mps 663 mmHg 86%
    07:00 +21°C° 1.3 mm 5 mps 664 mmHg 86%
    08:00 +21°C° 1.3 mm 6 mps 664 mmHg 85%
    09:00 +22°C° 0.8 mm 6 mps 664 mmHg 81%
    10:00 +23°C° 0.8 mm 6 mps 665 mmHg 76%
    11:00 +24°C° 0.8 mm 7 mps 665 mmHg 71%
    12:00 +24°C° 1.9 mm 6 mps 665 mmHg 72%
    13:00 +24°C° 1.9 mm 6 mps 664 mmHg 72%
    14:00 +25°C° 1.9 mm 5 mps 664 mmHg 73%
    15:00 +25°C° 2.3 mm 5 mps 663 mmHg 72%
    16:00 +25°C° 2.3 mm 4 mps 663 mmHg 72%
    17:00 +25°C° 2.3 mm 4 mps 663 mmHg 71%
    18:00 +24°C° 1.1 mm 3 mps 663 mmHg 75%
    19:00 +23°C° 1.1 mm 2 mps 663 mmHg 79%
    20:00 +22°C° 1.1 mm 1 mps 663 mmHg 83%
    21:00 +22°C° 1 mm 1 mps 663 mmHg 84%
    22:00 +22°C° 1 mm 1 mps 664 mmHg 85%
    23:00 +21°C° 1 mm 1 mps 664 mmHg 86%

    25 January, Saturday

    Time Temperature Precipitation Wind Pressure Humidity
    00:00 +20°C° 0.3 mm 2 mps 664 mmHg 87%
    01:00 +20°C° 0.3 mm 3 mps 664 mmHg 88%
    02:00 +20°C° 0.3 mm 3 mps 663 mmHg 88%
    03:00 +20°C° 0.7 mm 4 mps 663 mmHg 88%
    04:00 +20°C° 0.7 mm 5 mps 663 mmHg 88%
    05:00 +19°C° 0.7 mm 6 mps 663 mmHg 89%
    06:00 +20°C° 0.1 mm 6 mps 663 mmHg 86%
    07:00 +21°C° 0.1 mm 6 mps 664 mmHg 84%
    08:00 +21°C° 0.1 mm 7 mps 664 mmHg 82%
    09:00 +23°C° 0.2 mm 6 mps 665 mmHg 76%
    10:00 +24°C° 0.2 mm 6 mps 665 mmHg 69%
    11:00 +27°C° 0.2 mm 5 mps 665 mmHg 63%
    12:00 +28°C° 1.5 mm 5 mps 665 mmHg 60%
    13:00 +29°C° 1.5 mm 5 mps 664 mmHg 56%
    14:00 +29°C° 1.5 mm 4 mps 664 mmHg 52%
    15:00 +28°C° 0.6 mm 4 mps 663 mmHg 57%
    16:00 +27°C° 0.6 mm 3 mps 663 mmHg 62%
    17:00 +26°C° 0.6 mm 3 mps 662 mmHg 66%
    18:00 +25°C° 0.4 mm 3 mps 662 mmHg 70%
    19:00 +25°C° 0.4 mm 3 mps 662 mmHg 74%
    20:00 +24°C° 0.4 mm 3 mps 663 mmHg 77%
    21:00 +24°C° 0.1 mm 3 mps 663 mmHg 79%
    22:00 +23°C° 0.1 mm 2 mps 663 mmHg 81%
    23:00 +23°C° 0.1 mm 2 mps 663 mmHg 82%

    26 January, Sunday

    Time Temperature Precipitation Wind Pressure Humidity
    00:00 +23°C° 0 mm 2 mps 663 mmHg 83%
    01:00 +21°C° 0 mm 2 mps 663 mmHg 84%
    02:00 +21°C° 0 mm 3 mps 662 mmHg 85%
    03:00 +21°C° 0 mm 3 mps 663 mmHg 85%
    04:00 +21°C° 0 mm 3 mps 663 mmHg 86%
    05:00 +21°C° 0 mm 3 mps 663 mmHg 86%
    06:00 +22°C° 0 mm 4 mps 663 mmHg 82%
    07:00 +22°C° 0 mm 4 mps 663 mmHg 79%
    08:00 +23°C° 0 mm 5 mps 664 mmHg 75%
    09:00 +26°C° 0.1 mm 5 mps 664 mmHg 66%
    10:00 +29°C° 0.1 mm 5 mps 665 mmHg 56%
    11:00 +32°C° 0.1 mm 5 mps 665 mmHg 47%
    12:00 +33°C° 0 mm 5 mps 665 mmHg 44%
    13:00 +33°C° 0 mm 4 mps 664 mmHg 40%
    14:00 +34°C° 0 mm 4 mps 664 mmHg 37%
    15:00 +33°C° 0.1 mm 3 mps 663 mmHg 39%
    16:00 +33°C° 0.1 mm 3 mps 663 mmHg 41%
    17:00 +31°C° 0.1 mm 3 mps 663 mmHg 43%
    18:00 +29°C° 0.2 mm 3 mps 663 mmHg 48%
    19:00 +28°C° 0.2 mm 4 mps 663 mmHg 54%
    20:00 +26°C° 0.2 mm 4 mps 663 mmHg 60%
    21:00 +26°C° 0.3 mm 3 mps 663 mmHg 63%
    22:00 +25°C° 0.3 mm 2 mps 663 mmHg 66%
    23:00 +25°C° 0.3 mm 1 mps 664 mmHg 70%
    Show more